FW6155 Weather Reports


Display with metric or nautical units.
time (UTC)temp
F
wind
direction
speed
MPH
gust
MPH
rain 1hr
in
rain 24hr
in
rain mn
in
humidity
%
barometer
mb
20260510033046 62 0.0 0.0 0.00 0.02 0.02 73 1016.8
20260510031552 62 0.0 0.0 0.00 0.02 0.02 72 1016.8
20260510030042 63 0.0 0.0 0.00 0.02 0.02 71 1016.8
20260510024550 64 0.0 0.0 0.00 0.02 0.02 69 1017.0
20260510023046 65 0.0 0.0 0.00 0.02 0.02 68 1017.1
20260510021544 65 0.0 0.0 0.00 0.02 0.02 66 1017.0
20260510020044 65 0.0 0.0 0.00 0.02 0.02 66 1017.3
20260510014544 66 0.0 0.0 0.00 0.02 0.02 61 1017.7
20260510013042 66 0.0 0.0 0.00 0.02 0.02 62 1017.8
20260510011552 66 0.0 0.0 0.00 0.02 0.02 60 1017.9
20260510010045 66 0.0 0.0 0.00 0.02 0.02 59 1018.2
20260510004547 66 0.0 0.0 0.00 0.02 0.02 60 1018.2
20260510003048 67 0.0 0.0 0.00 0.02 0.02 58 1018.3
20260510001549 67 0.0 0.0 0.00 0.02 0.02 58 1018.6
20260510000042 67 0.0 0.0 0.00 0.02 0.02 58 1018.5
20260509234549 67 0.0 0.0 0.00 0.02 0.02 57 1018.9
20260509233052 67 0.0 0.0 0.00 0.02 0.02 58 1019.0
20260509231545 66 0.0 0.0 0.00 0.02 0.02 57 1019.0
20260509230044 66 0.0 0.0 0.00 0.02 0.02 60 1019.3
20260509224553 66 0.0 0.0 0.00 0.02 0.02 60 1019.6
20260509223047 65 0.0 0.0 0.00 0.02 0.02 61 1019.7
20260509221558 65 0.0 0.0 0.00 0.02 0.02 62 1019.7
20260509220051 65 0.0 0.0 0.02 0.02 0.02 64 1019.7
20260509214550 65 0.0 0.0 0.02 0.02 0.02 66 1019.8
20260509213045 66 0.0 0.0 0.02 0.02 0.02 65 1020.0
20260509211546 66 0.0 0.0 0.02 0.02 0.02 63 1020.0
20260509210046 66 0.0 0.0 0.00 0.00 0.00 60 1019.9
20260509204544 67 0.0 0.0 0.00 0.00 0.00 58 1020.1
20260509203041 67 0.0 0.0 0.00 0.00 0.00 59 1020.2
20260509201554 66 0.0 0.0 0.00 0.00 0.00 59 1020.5
20260509200057 66 0.0 0.0 0.00 0.00 0.00 58 1020.9
20260509194552 66 0.0 0.0 0.00 0.00 0.00 59 1021.1
20260509193053 65 0.0 0.0 0.00 0.00 0.00 60 1021.4
20260509191543 65 0.0 0.0 0.00 0.00 0.00 60 1021.6
20260509190053 65 0.0 0.0 0.00 0.00 0.00 60 1021.7
20260509184542 64 0.0 0.0 0.00 0.00 0.00 63 1021.9
20260509183041 64 0.0 0.0 0.00 0.00 0.00 63 1021.8
20260509181542 63 0.0 0.0 0.00 0.00 0.00 65 1022.0
20260509180058 62 0.0 0.0 0.00 0.00 0.00 68 1021.9
20260509174546 61 0.0 0.0 0.00 0.00 0.00 70 1022.1
20260509173047 60 0.0 0.0 0.00 0.00 0.00 71 1022.3
20260509171547 60 0.0 0.0 0.00 0.00 0.00 70 1022.2
20260509170043 60 0.0 0.0 0.00 0.00 0.00 70 1022.4
20260509164549 60 0.0 0.0 0.00 0.00 0.00 70 1022.5
20260509163052 61 0.0 0.0 0.00 0.00 0.00 69 1022.7
20260509161556 61 0.0 0.0 0.00 0.00 0.00 70 1022.8
20260509160047 61 0.0 0.0 0.00 0.00 0.00 69 1023.0
20260509154542 61 0.0 0.0 0.00 0.00 0.00 70 1023.2
20260509153045 60 0.0 0.0 0.00 0.00 0.00 72 1023.1
20260509151540 59 0.0 0.0 0.00 0.00 0.00 75 1023.3
20260509150051 57 0.0 0.0 0.00 0.00 0.00 78 1023.4
20260509144544 55 0.0 0.0 0.00 0.00 0.00 82 1023.5
20260509143043 53 0.0 0.0 0.00 0.00 0.00 86 1023.6
20260509141542 51 0.0 0.0 0.00 0.00 0.00 89 1023.7
20260509140046 50 0.0 0.0 0.00 0.00 0.00 90 1023.7
20260509134557 49 0.0 0.0 0.00 0.00 0.00 89 1023.7
20260509133045 49 0.0 0.0 0.00 0.00 0.00 90 1023.8
20260509131551 49 0.0 0.0 0.00 0.00 0.00 90 1023.9
20260509130043 49 0.0 0.0 0.00 0.00 0.00 89 1023.6
20260509124543 49 0.0 0.0 0.00 0.00 0.00 89 1023.6
20260509123054 49 0.0 0.0 0.00 0.00 0.00 89 1023.6
20260509121550 49 0.0 0.0 0.00 0.00 0.00 89 1023.7
20260509120053 49 0.0 0.0 0.00 0.00 0.00 88 1023.7
20260509114551 50 0.0 0.0 0.00 0.00 0.00 88 1023.8
20260509113048 50 0.0 0.0 0.00 0.00 0.00 88 1023.8
20260509111541 51 0.0 0.0 0.00 0.00 0.00 87 1023.8
20260509110047 51 0.0 0.0 0.00 0.00 0.00 87 1023.9
20260509104539 52 0.0 0.0 0.00 0.00 0.00 86 1024.0
20260509103045 53 0.0 0.0 0.00 0.00 0.00 86 1024.0
20260509101551 53 0.0 0.0 0.00 0.00 0.00 86 1024.1
20260509100043 53 0.0 0.0 0.00 0.00 0.00 85 1024.1
20260509094544 53 0.0 0.0 0.00 0.00 0.00 85 1024.1
20260509093049 53 0.0 0.0 0.00 0.00 0.00 85 1024.2
20260509091548 53 0.0 0.0 0.00 0.00 0.00 85 1024.4
20260509090045 52 0.0 0.0 0.00 0.00 0.00 86 1024.5
20260509084554 52 0.0 0.0 0.00 0.00 0.00 87 1024.3
20260509083046 51 0.0 0.0 0.00 0.00 0.00 87 1024.4
20260509081548 51 0.0 0.0 0.00 0.00 0.00 86 1024.4
20260509080039 51 0.0 0.0 0.00 0.00 0.00 86 1024.4
20260509074554 51 0.0 0.0 0.00 0.00 0.00 86 1024.4
20260509073044 51 0.0 0.0 0.00 0.00 0.00 86 1024.4
20260509071544 51 0.0 0.0 0.00 0.00 0.00 85 1024.3
20260509070040 51 0.0 0.0 0.00 0.00 0.00 85 1024.3
20260509064557 51 0.0 0.0 0.00 0.00 0.00 84 1024.1
20260509063046 51 0.0 0.0 0.00 0.00 0.00 84 1024.0
20260509061608 52 0.0 0.0 0.00 0.00 0.00 83 1024.1
20260509060056 52 0.0 0.0 0.00 0.00 0.00 82 1024.0
20260509054550 53 0.0 0.0 0.00 0.00 0.00 82 1023.9
20260509053047 53 0.0 0.0 0.00 0.00 0.00 81 1023.8
20260509051547 53 0.0 0.0 0.00 0.00 0.00 81 1023.7
20260509050045 53 0.0 0.0 0.00 0.00 0.00 80 1023.7
20260509044551 53 0.0 0.0 0.00 0.00 0.00 79 1023.7
20260509043041 54 0.0 0.0 0.00 0.00 0.00 78 1023.5
20260509041546 54 0.0 0.0 0.00 0.00 0.00 77 1023.4
20260509040047 55 0.0 0.0 0.00 0.00 0.00 76 1023.3
20260509034550 56 0.0 0.0 0.00 0.00 0.00 75 1023.0